Terminal Aerodrome Forecast
Issued by NWS

Home | Current Version | Previous Version | Text Only | Print | Product List | Glossary On
Versions: 1 2 3 4 5 6 7 8 9 10 11 12 13 14 15 16 17 18 19
000
FTUS45 KBOU 280000 AAA
TAFBJC
TAF AMD
KBJC 280000Z 2800/2824 29011KT P6SM SCT100 BKN150
     FM280130 36011KT P6SM VCSH FEW100 BKN140
     FM280500 34011KT P6SM SCT030 BKN120
     FM280900 VRB05KT P6SM SCT015 OVC025
     FM281500 01009KT P6SM SCT025 BKN040
     FM281800 04012KT P6SM VCTS SCT025CB OVC040 PROB30 2820/2824
      VRB20G30KT 5SM TSRA BKN025CB=

USA.gov is the U.S. government's official web portal to all federal, state and local government web resources and services.